Other Public Products
Issued by NWS Grand Forks, ND

Home | Current Version | Previous Version | Text Only | Print | Product List | Glossary Off
Versions: 1 2 3 4 5 6 7 8 9 10 11 12 13 14 15 16 17 18 19 20 21 22 23 24 25 26 27 28 29 30 31 32 33 34 35 36 37 38 39 40 41 42 43 44 45 46 47 48 49 50

000
FPUS83 KFGF 041410
OPUFGF
PRAIRIE TO PINES WEATHER ROUNDUP
NATIONAL WEATHER SERVICE EASTERN NORTH DAKOTA/GRAND FORKS ND
900 AM CDT FRI SEP 04 2015

 **SATELLITE DATA USED TO AUGMENT SKY COVER AT AUTOMATED STATIONS**
 *****  WEATHER ACROSS EASTERN NORTH DAKOTA  *****

CITY           SKY/WX    TMP DP  RH WIND       PRES   REMARKS
GRAND FORKS    CLOUDY    74  70  87 SE14      29.76F
GRAND FORKS AF CLOUDY    74  71  90 S10       29.77F
GRAND CITY NWS   N/A     73 N/A N/A SE7         N/A
BUXTON         NOT AVBL
DEVILS LAKE    CLOUDY    75  66  73 SE9       29.77R
FARGO          MOSUNNY   78  72  81 SE10G21   29.77R
WAHPETON ARPT  MOSUNNY   77  68  73 SE14G23   29.79S
$$

 *****  WEATHER ACROSS CENTRAL AND WESTERN NORTH DAKOTA  *****

CITY           SKY/WX    TMP DP  RH WIND       PRES   REMARKS
JAMESTOWN      CLOUDY    75  72  90 E9        29.73F
BISMARCK       CLOUDY    72  70  93 E3        29.74S
MINOT          CLOUDY    67  59  75 N21G28    29.77R
MINOT AFB      DRIZZLE   66  61  84 N16G26    29.75F
GARRISON         N/A     70  67  90 NE6       29.79R
WILLISTON      CLOUDY    63  55  75 NW12      29.86R
DICKINSON      CLOUDY    65  60  84 N16       29.77F
HETTINGER      CLOUDY    66  62  87 E8        29.82R
$$

 *****  OTHER OBSERVATIONS NORTHEAST NORTH DAKOTA  *****

CITY           SKY/WX    TMP DP  RH WIND       PRES   REMARKS
WALHALLA       FAIR      73  73 100 MISG      29.79R
LANGDON        CLOUDY    75  73  94 SE9G16    29.80R
CAVALIER       CLOUDY    73  72  94 SE6       29.78S FOG
GRAFTON        CLOUDY    73  73 100 SE12      29.78F
CANDO          NOT AVBL
FORT TOTTEN      N/A     75  73  94 S7        29.95S
ROLLA          CLOUDY    68  68 100 N7        29.81R FOG
RUGBY          PTSUNNY   72  72 100 SE9       29.76R
 ***** THE ABOVE OBSERVATIONS ARE NON NWS ARE NOT QUALITY
        CONTROLLED AND MAY MIS-REPORT RAIN FOR SNOW...
$$

 *****  OTHER OBSERVATIONS SOUTHEAST NORTH DAKOTA *****

CITY           SKY/WX    TMP DP  RH WIND       PRES   REMARKS
COOPERSTOWN    NOT AVBL
VALLEY CITY    FAIR      75  75 100 SE12      29.75F
OAKES            N/A     73  73 100 SE13G18   29.76S
GWINNER          N/A     75  75 100 SE13      29.78R
SHEYENNE NWR     N/A     76  73  90 SE10      29.95S
BUFFALO        NOT AVBL
WYNDMERE         N/A     77  72  83 SE12        N/A
 ***** THE ABOVE OBSERVATIONS ARE NON NWS ARE NOT QUALITY
       CONTROLLED AND MAY MIS-REPORT RAIN FOR SNOW...
$$

  *****  WEATHER ACROSS NORTHERN MINNESOTA  *****

CITY           SKY/WX    TMP DP  RH WIND       PRES   REMARKS
FLAG ISLAND    CLOUDY    68  63  83 SE9       29.88R
WARROAD        CLOUDY    70  66  88 SE9       29.85F
ROSEAU         CLOUDY    70  64  83 SE8       29.84S
HALLOCK        PTSUNNY   75  72  88 S10       29.80R
THF RVR FALLS  MOSUNNY   73  70  88 SE15      29.81S
HALSTAD        NOT AVBL
FOSSTON        PTSUNNY   70  66  88 SE10      29.83F
BAUDETTE       CLOUDY    66  60  81 SE12      29.88F
WASKISH        CLOUDY    68  66  94 SE14      29.88F
CROOKSTON      MOSUNNY   75  72  88 SE16      29.78F
$$
  *****  WEATHER ACROSS CENTRAL AND WEST MINNESOTA  *****

CITY           SKY/WX    TMP DP  RH WIND       PRES   REMARKS
BEMIDJI        CLOUDY    67  65  94 SE10      29.89R
PARK RAPIDS    CLOUDY    71  67  87 SE14      29.88S FOG
WADENA         CLOUDY    70  68  94 SE12      29.86F FOG
DETROIT LAKES  CLOUDY    72  68  88 SE17G26   29.84F
MOORHEAD       SUNNY     79  72  78 SE13      29.78R
FERGUS FALLS   SUNNY     77  73  88 SE15G21   29.80S
ELBOW LAKE     FAIR      76  71  84 SE16G24   29.82S
MORRIS MN      MOSUNNY   77  72  83 SE13      29.82S
STAPLES        CLOUDY    70  66  88 SE10      29.88F FOG
WHEATON        MOSUNNY   73  70  88 SE13      29.81R
$$
  *****  WEATHER ELSEWHERE ACROSS MINNESOTA  *****

CITY           SKY/WX    TMP DP  RH WIND       PRES   REMARKS
DULUTH         MOSUNNY   65  61  87 SE13      30.01S
INTRNTL FALLS  PTSUNNY   69  63  81 SE12      29.94S
ELY            SUNNY     68  61  77 S8        30.01S
CLOQUET        CLOUDY    64  61  88 E7        29.99F
BRAINERD       PTSUNNY   71  66  84 SE7       29.91F
HIBBING        PTSUNNY   68  62  81 SE12      29.99S
ALEXANDRIA     CLOUDY    74  71  91 SE14      29.88R
SAINT CLOUD    MOSUNNY   73  69  87 SE10      29.90F
MINNEAPOLIS    PTSUNNY   72  68  87 SE12      29.94R
$$

  *****  WEATHER ACROSS SOUTH DAKOTA  *****

CITY           SKY/WX    TMP DP  RH WIND       PRES   REMARKS
SIOUX FALLS    CLOUDY    75  67  76 S10       29.86R
BROOKINGS      CLOUDY    72  66  83 S14G20    29.88R
WATERTOWN      CLOUDY    74  68  81 SE6       29.82R
HURON          LGT RAIN  71  68  90 S16G26    29.81R
SISSETON         N/A     74  71  91 S10       29.78R
ABERDEEN       CLOUDY    73  67  81 W8        29.78R
MITCHELL       CLOUDY    75  67  76 SW7       29.85R
PIERRE         CLOUDY    73  66  78 CALM      29.74R
MOBRIDGE       CLOUDY    71  69  93 SE9       29.71F
RAPID CITY     SUNNY     64  56  75 SE3       29.81R
$$

  *****  SOME WEATHER IN NEARBY STATES *****

CITY           SKY/WX    TMP DP  RH WIND       PRES   REMARKS
GLASGOW MT     MOSUNNY   55  41  59 N20G25    29.95R
GREAT FALLS MT CLOUDY    48  47  96 NE7       29.96F
CHEYENNE WY    SUNNY     62  44  51 SW8       30.05R
SCOTTSBLUFF NE SUNNY     61  55  81 SW3       29.92R
OMAHA NE       CLOUDY    75  69  81 S12       29.93S
DES MOINES IA  MOSUNNY   77  68  73 S8        29.97R
DAVENPORT IA   SUNNY     77  72  84 CALM      30.00S
CHICAGO IL     MOSUNNY   72  66  81 NE6       30.02R
EAU CLAIRE WI  CLOUDY    72  64  76 SE6       30.00S
LA CROSSE WI   SUNNY     74  67  78 E7        29.99S
$$

  *****  SOME NATIONAL WEATHER *****

CITY           SKY/WX    TMP DP  RH WIND       PRES   REMARKS
LA GUARDIA NY  PTSUNNY   78  67  68 NE17      30.05R
RALEIGH NC     MOSUNNY   81  70  69 CALM      30.00R
ATLANTA GA     MOSUNNY   79  69  71 CALM      30.03S
NEW ORLEANS LA PTSUNNY   83  75  77 S5        30.00R HX  90
OKLAHOMA CITY  MOSUNNY   77  68  73 S12       29.98R
ALBUQUERQUE NM CLOUDY    68  49  50 SE6       30.11R
SALT LAKE CITY PTSUNNY   73  37  27 S15       29.86R
LOS ANGELES CA MOCLDY    68  56  65 E6        29.87R
BOISE ID       PTCLDY    50  38  63 NW5       29.85S
SEATTLE WA     CLOUDY    51  48  89 N10       30.01R
$$

*** WEATHER ACROSS MANITOBA...SASKATCHEWAN AND ONTARIO ***
                ***ONTARIO***

CITY           SKY/WX    TMP DP  RH WIND       PRES   REMARKS
GERALDTON      MOSUNNY   68  59  73 S6        30.09F
THUNDER BAY    MOSUNNY   63  57  82 CALM      30.07S
SIOUX LOOKOUT  PTSUNNY   68  61  77 S6        30.01R
TORONTO        PTSUNNY   77  63  61 E12       30.10R
BIG TROUT LK   PTSUNNY   66  57  72 SW10      29.92R
PICKLE LAKE    PTSUNNY   68  59  73 SW8       30.02R
DRYDEN         PTSUNNY   68  61  77 S9        29.98R
KENORA         CLOUDY    68  63  83 SE9       29.93R
$$
                *** MANITOBA***

CITY           SKY/WX    TMP DP  RH WIND       PRES   REMARKS
BRANDON        CLOUDY    64  57  77 NE18G26   29.85R
DAUPHIN        LGT RAIN  57  54  88 W8        29.93R
ISLAND LAKE    TSTM      64  64 100 VRB2      29.79F
PILOT MOUND      N/A     73  72  94 E2          N/A
THE PAS        CLOUDY    57  46  67 N10G17    29.97R
THOMPSON       NOT AVBL
WINNIPEG       CLOUDY    75  72  88 SE10      29.81R
LYNN LAKE      PTSUNNY   52  45  76 W8        29.92S
CHURCHILL      FOG       50  50 100 CALM      29.82R VSB 1
GILLAM         PTSUNNY   59  50  72 NW10      29.86
$$
                ***SASKATCHEWAN***

CITY           SKY/WX    TMP DP  RH WIND       PRES   REMARKS
ESTEVAN        PTSUNNY   61  52  72 N5G17     29.88R
KINDERSLEY     LGT RAIN  48  45  87 NE7       30.07R
LLOYDMINSTER   PTSUNNY   39  39 100 NW6       30.10R
PRINCE ALBERT  CLOUDY    48  45  87 NW3       30.06R
REGINA         PTSUNNY   54  48  82 N8        29.96R


USA.gov is the U.S. government's official web portal to all federal, state and local government web resources and services.